Weather History for KDAW - May, 2013

Change the Weather History Date:

Thursday, May 2, 2013

  Actual Average (KSFM) Record (KSFM)
Temperature  
Mean Temperature 58 °F -  
Max Temperature 73 °F 60 °F 91 °F (2001)
Min Temperature 41 °F 38 °F 28 °F (2008)
Degree Days  
Heating Degree Days 7    
Growing Degree Days 8 (Base 50)    
Moisture  
Dew Point 36 °F    
Average Humidity 57    
Maximum Humidity 76    
Minimum Humidity 26    
Precipitation  
Precipitation 0.00 in - - ()
Sea Level Pressure  
Sea Level Pressure 30.44 in    
Wind  
Wind Speed 3 mph (ENE)    
Max Wind Speed 16 mph    
Max Gust Speed 24 mph    
Visibility 10 miles    
Events      
Averages and records for this station are not official NWS values.
T = Trace of Precipitation, MM = Missing Value Source: NWS Daily Summary

Daily Weather History Graph

Daily Weather History Graph

Search for Another Location

Airport or City:

Trip Planner

Search our weather history database for the weather conditions in past years. The results will help you decide how hot, cold, wet, or windy it might be!

Date:

Astronomy

May. 02, 2013 Rise Set
Actual Time 5:35 AM EDT 7:46 PM EDT
Civil Twilight 5:03 AM EDT 8:18 PM EDT
Nautical Twilight 4:25 AM EDT 8:57 PM EDT
Astronomical Twilight 3:42 AM EDT 9:39 PM EDT
Moon 1:32 AM EDT (5/2) 12:20 PM EDT (5/2)
Length of Visible Light 15h 14m
Length of Day
14h 11m
Waning Gibbous, 48% of the Moon is Illuminated
May 2
Waning Gibbous
May 9
New
May 18
First Quarter
May 25
Full
May 31
Last Quarter

Hourly Weather History & Observations

Time (EDT) Temp. Windchill Dew Point Humidity Pressure Visibility Wind Dir Wind Speed Gust Speed Precip Events Conditions
12:51 AM 46.0 °F - 35.1 °F 66% 30.43 in 10.0 mi Calm Calm - N/A   Clear
1:51 AM 46.0 °F 44.8 °F 35.1 °F 66% 30.42 in 10.0 mi NNW 3.5 mph - N/A   Clear
2:51 AM 46.0 °F 44.8 °F 34.0 °F 63% 30.41 in 10.0 mi NW 3.5 mph - N/A   Clear
3:51 AM 43.0 °F - 35.1 °F 74% 30.40 in 10.0 mi Calm Calm - N/A   Clear
4:51 AM 44.1 °F - 34.0 °F 68% 30.40 in 10.0 mi Calm Calm - N/A   Clear
5:51 AM 43.0 °F - 34.0 °F 71% 30.40 in 10.0 mi Calm Calm - N/A   Clear
6:51 AM 45.0 °F 43.5 °F 37.0 °F 74% 30.41 in 10.0 mi NW 3.5 mph - N/A   Clear
7:51 AM 54.0 °F - 39.0 °F 57% 30.42 in 10.0 mi Calm Calm - N/A   Clear
8:51 AM 60.1 °F - 39.0 °F 46% 30.42 in 10.0 mi Calm Calm - N/A   Clear
9:51 AM 66.9 °F - 39.0 °F 36% 30.40 in 10.0 mi SSE 3.5 mph - N/A   Clear
10:51 AM 72.0 °F - 36.0 °F 27% 30.39 in 10.0 mi Calm Calm - N/A   Partly Cloudy
11:51 AM 73.0 °F - 36.0 °F 26% 30.38 in 10.0 mi SE 5.8 mph - N/A   Mostly Cloudy
12:51 PM 71.1 °F - 39.0 °F 31% 30.38 in 10.0 mi East 16.1 mph 23.0 mph N/A   Partly Cloudy
1:51 PM 62.1 °F - 43.0 °F 50% 30.42 in 10.0 mi ENE 12.7 mph 24.2 mph N/A   Partly Cloudy
2:51 PM 55.9 °F - 42.1 °F 60% 30.44 in 10.0 mi East 12.7 mph 21.9 mph N/A   Overcast
3:51 PM 51.1 °F - 37.9 °F 61% 30.46 in 10.0 mi East 10.4 mph 18.4 mph N/A   Overcast
4:51 PM 51.1 °F - 30.9 °F 46% 30.46 in 10.0 mi East 6.9 mph - N/A   Overcast
5:51 PM 50.0 °F - 34.0 °F 54% 30.47 in 10.0 mi ENE 10.4 mph - N/A   Overcast
6:51 PM 48.9 °F - 35.1 °F 59% 30.48 in 10.0 mi ESE 4.6 mph - N/A   Overcast
7:51 PM 50.0 °F - 36.0 °F 59% 30.47 in 10.0 mi Calm Calm - N/A   Overcast
8:51 PM 48.0 °F - 36.0 °F 63% 30.49 in 10.0 mi Calm Calm - N/A   Mostly Cloudy
9:51 PM 44.1 °F 42.5 °F 36.0 °F 73% 30.51 in 10.0 mi NW 3.5 mph - N/A   Clear
10:51 PM 44.1 °F 42.5 °F 35.1 °F 71% 30.51 in 10.0 mi NW 3.5 mph - N/A   Clear
11:51 PM 41.0 °F - 34.0 °F 76% 30.51 in 10.0 mi Calm Calm - N/A   Clear